Olivia, MN

2:12 AM CST on December 03, 2016 (GMT -0600)
Olivia Regional

Weather History for KOVL - February, 2014

Change the Weather History Date:

Wednesday, February 26, 2014

  Actual Average (KRWF) Record (KRWF)
Temperature  
Mean Temperature 8 °F -  
Max Temperature 23 °F 35 °F 55 °F (1976)
Min Temperature -7 °F 19 °F -11 °F (1962)
Degree Days  
Heating Degree Days 57    
Moisture  
Dew Point -2 °F    
Average Humidity 68    
Maximum Humidity 79    
Minimum Humidity 54    
Precipitation  
Precipitation 0.00 in - - ()
Sea Level Pressure  
Sea Level Pressure 29.95 in    
Wind  
Wind Speed 16 mph (West)    
Max Wind Speed 29 mph    
Max Gust Speed 39 mph    
Visibility 8 miles    
Events      
Averages and records for this station are not official NWS values.
T = Trace of Precipitation, MM = Missing Value Source: NWS Daily Summary

Daily Weather History Graph

Daily Weather History Graph

Search for Another Location

Airport or City:

Trip Planner

Search our weather history database for the weather conditions in past years. The results will help you decide how hot, cold, wet, or windy it might be!

Date:

Astronomy

Feb. 26, 2014 Rise Set
Actual Time 7:02 AM CST 6:03 PM CST
Civil Twilight 6:33 AM CST 6:33 PM CST
Nautical Twilight 5:59 AM CST 7:07 PM CST
Astronomical Twilight 5:25 AM CST 7:41 PM CST
Moon 4:55 AM CST (2/26) 3:14 PM CST (2/26)
Length of Visible Light 11h 59m
Length of Day
11h 00m
Waning Crescent, 10% of the Moon is Illuminated
Feb 26
Waning Crescent
Mar 1
New
Mar 8
First Quarter
Mar 16
Full
Mar 23
Last Quarter

Hourly Weather History & Observations

Time (CST) Temp. Windchill Dew Point Humidity Pressure Visibility Wind Dir Wind Speed Gust Speed Precip Events Conditions
12:13 AM -4.0 °F -21.2 °F -11.2 °F 71% 30.36 in 10.0 mi WNW 10.4 mph - N/A   Clear
12:33 AM -5.8 °F -23.4 °F -13.0 °F 71% 30.35 in 10.0 mi West 10.4 mph - N/A   Clear
12:53 AM -4.0 °F -23.0 °F -11.2 °F 71% 30.34 in 10.0 mi West 12.7 mph - N/A   Clear
1:14 AM -4.0 °F -21.2 °F -11.2 °F 71% 30.33 in 10.0 mi West 10.4 mph - N/A   Clear
1:33 AM -5.8 °F -23.4 °F -13.0 °F 71% 30.33 in 10.0 mi West 10.4 mph - N/A   Clear
1:53 AM -4.0 °F -21.2 °F -9.4 °F 78% 30.31 in 10.0 mi West 10.4 mph - N/A   Clear
2:14 AM -4.0 °F -22.1 °F -11.2 °F 71% 30.30 in 10.0 mi West 11.5 mph - N/A   Clear
2:33 AM -4.0 °F -21.2 °F -9.4 °F 78% 30.29 in 10.0 mi West 10.4 mph - N/A   Clear
2:53 AM -5.8 °F -23.4 °F -11.2 °F 77% 30.28 in 10.0 mi West 10.4 mph - N/A   Clear
3:14 AM -4.0 °F -21.2 °F -11.2 °F 71% 30.26 in 10.0 mi West 10.4 mph - N/A   Clear
3:33 AM -4.0 °F -21.2 °F -11.2 °F 71% 30.25 in 10.0 mi West 10.4 mph - N/A   Clear
3:53 AM -4.0 °F -21.2 °F -11.2 °F 71% 30.23 in 10.0 mi West 10.4 mph - N/A   Clear
4:13 AM -4.0 °F -20.2 °F -11.2 °F 71% 30.21 in 10.0 mi WSW 9.2 mph - N/A   Clear
4:33 AM -4.0 °F -20.2 °F -11.2 °F 71% 30.19 in 10.0 mi WSW 9.2 mph - N/A   Clear
4:53 AM -7.6 °F -22.1 °F -14.8 °F 71% 30.17 in 10.0 mi SW 6.9 mph - N/A   Clear
5:14 AM -7.6 °F -23.4 °F -13.0 °F 77% 30.15 in 10.0 mi WSW 8.1 mph - N/A   Clear
5:33 AM -7.6 °F -22.1 °F -13.0 °F 77% 30.14 in 10.0 mi WSW 6.9 mph - N/A   Clear
5:53 AM -5.8 °F -19.9 °F -13.0 °F 71% 30.13 in 10.0 mi SW 6.9 mph - N/A   Clear
6:13 AM -4.0 °F -21.2 °F -11.2 °F 71% 30.12 in - SW 10.4 mph - N/A   Clear
6:33 AM -4.0 °F -22.1 °F -11.2 °F 71% 30.10 in - SW 11.5 mph - N/A   Clear
6:53 AM -4.0 °F -20.2 °F -11.2 °F 71% 30.08 in - SW 9.2 mph - N/A   Clear
7:13 AM -4.0 °F -23.0 °F -11.2 °F 71% 30.06 in - WSW 12.7 mph - N/A   Clear
7:34 AM -4.0 °F -25.2 °F -11.2 °F 71% 30.04 in - WSW 16.1 mph - N/A   Clear
7:53 AM -2.2 °F -21.5 °F -9.4 °F 71% 30.03 in - WSW 13.8 mph - N/A   Clear
8:13 AM -0.4 °F -20.5 °F -9.4 °F 66% 30.02 in - WSW 16.1 mph - N/A   Clear
8:33 AM 1.4 °F -18.8 °F -7.6 °F 66% 30.00 in - SW 17.3 mph - N/A   Clear
8:53 AM 1.4 °F -19.4 °F -5.8 °F 72% 29.99 in - SW 18.4 mph - N/A   Clear
9:13 AM 3.2 °F -17.6 °F -5.8 °F 66% 29.97 in 10.0 mi WSW 19.6 mph - N/A   Clear
9:33 AM 5.0 °F -15.2 °F -4.0 °F 66% 29.95 in 10.0 mi SW 19.6 mph - N/A   Clear
9:53 AM 5.0 °F -16.2 °F -4.0 °F 66% 29.92 in 10.0 mi WSW 21.9 mph - N/A   Clear
10:14 AM 8.6 °F -11.4 °F 1.4 °F 73% 29.89 in 10.0 mi WSW 21.9 mph - N/A   Clear
10:33 AM 10.4 °F -8.2 °F 1.4 °F 67% 29.88 in 10.0 mi WSW 19.6 mph 26.5 mph N/A   Clear
10:53 AM 12.2 °F -6.7 °F 3.2 °F 67% 29.86 in 10.0 mi WSW 21.9 mph 27.6 mph N/A   Clear
11:13 AM 15.8 °F -2.3 °F 5.0 °F 62% 29.84 in 10.0 mi WSW 23.0 mph 29.9 mph N/A   Clear
11:34 AM 15.8 °F -2.7 °F 5.0 °F 62% 29.81 in 10.0 mi WSW 24.2 mph 28.8 mph N/A   Clear
11:53 AM 15.8 °F -1.1 °F 5.0 °F 62% 29.79 in 10.0 mi WSW 19.6 mph 26.5 mph N/A   Clear
12:13 PM 17.6 °F -1.0 °F 8.6 °F 68% 29.76 in 10.0 mi WSW 26.5 mph 29.9 mph N/A   Clear
12:34 PM 19.4 °F 2.5 °F 8.6 °F 63% 29.74 in 10.0 mi WSW 23.0 mph 28.8 mph N/A   Clear
12:53 PM 21.2 °F 3.3 °F 8.6 °F 58% 29.72 in 10.0 mi West 28.8 mph 33.4 mph N/A   Clear
1:13 PM 21.2 °F 3.9 °F 6.8 °F 54% 29.70 in 10.0 mi West 26.5 mph 33.4 mph N/A   Clear
1:33 PM 21.2 °F 4.2 °F 10.4 °F 63% 29.69 in 10.0 mi West 25.3 mph 31.1 mph N/A   Clear
1:53 PM 23.0 °F 6.0 °F 10.4 °F 59% 29.67 in 10.0 mi West 27.6 mph 32.2 mph N/A   Clear
2:13 PM 23.0 °F 6.3 °F 10.4 °F 59% 29.67 in 10.0 mi West 26.5 mph 35.7 mph N/A   Clear
2:33 PM 23.0 °F 5.7 °F 10.4 °F 59% 29.67 in 7.0 mi West 28.8 mph 39.1 mph N/A   Clear
2:54 PM 23.0 °F 8.0 °F 10.4 °F 59% 29.67 in 10.0 mi West 20.7 mph 32.2 mph N/A   Clear
3:14 PM 23.0 °F 6.6 °F 10.4 °F 59% 29.67 in 10.0 mi WNW 25.3 mph 35.7 mph N/A   Clear
3:33 PM 23.0 °F 6.0 °F 10.4 °F 59% 29.67 in 5.0 mi WNW 27.6 mph 34.5 mph N/A   Haze
3:53 PM 23.0 °F 7.2 °F 10.4 °F 59% 29.68 in 7.0 mi WNW 23.0 mph 31.1 mph N/A   Clear
4:13 PM 21.2 °F 4.2 °F 12.2 °F 68% 29.68 in 5.0 mi NW 25.3 mph 34.5 mph N/A   Haze
4:34 PM 21.2 °F 4.5 °F 10.4 °F 63% 29.69 in 5.0 mi NW 24.2 mph 32.2 mph N/A   Haze
4:53 PM 21.2 °F 6.0 °F 12.2 °F 68% 29.71 in 10.0 mi NW 19.6 mph 27.6 mph N/A   Clear
5:13 PM 17.6 °F -0.6 °F 12.2 °F 79% 29.72 in 4.0 mi NNW 25.3 mph 32.2 mph N/A   Haze
5:33 PM 15.8 °F -3.4 °F 10.4 °F 79% 29.74 in 2.0 mi NNW 26.5 mph 33.4 mph N/A   Haze
5:53 PM 15.8 °F -3.4 °F 8.6 °F 73% 29.76 in 5.0 mi NNW 26.5 mph 32.2 mph N/A   Haze
6:13 PM 12.2 °F -7.1 °F 5.0 °F 73% 29.78 in 4.0 mi NNW 23.0 mph 31.1 mph N/A   Haze
6:33 PM 12.2 °F -7.1 °F 5.0 °F 73% 29.80 in 7.0 mi NNW 23.0 mph 28.8 mph N/A   Clear
6:53 PM 12.2 °F -6.3 °F 5.0 °F 73% 29.81 in 10.0 mi NNW 20.7 mph 26.5 mph N/A   Clear
7:14 PM 10.4 °F -9.5 °F 3.2 °F 73% 29.82 in 7.0 mi NW 23.0 mph 28.8 mph N/A   Clear
7:33 PM 10.4 °F -9.1 °F 3.2 °F 73% 29.83 in 5.0 mi NW 21.9 mph 28.8 mph N/A   Haze
7:53 PM 10.4 °F -9.5 °F 3.2 °F 73% 29.84 in 4.0 mi NNW 23.0 mph 34.5 mph N/A   Haze
8:13 PM 10.4 °F -9.1 °F 3.2 °F 73% 29.86 in 7.0 mi NW 21.9 mph 28.8 mph N/A   Clear
8:33 PM 10.4 °F -11.0 °F 3.2 °F 73% 29.88 in 2.5 mi NNW 27.6 mph 34.5 mph N/A   Haze
8:53 PM 5.0 °F -16.2 °F -4.0 °F 66% 29.89 in 5.0 mi NNW 21.9 mph 32.2 mph N/A   Haze
9:13 PM 5.0 °F -18.3 °F -5.8 °F 61% 29.90 in 7.0 mi NW 27.6 mph 31.1 mph N/A   Clear
9:33 PM 3.2 °F -19.5 °F -5.8 °F 66% 29.92 in 3.0 mi NW 24.2 mph - N/A   Haze
9:53 PM 1.4 °F -21.4 °F -7.6 °F 66% 29.94 in 4.0 mi NNW 23.0 mph 32.2 mph N/A   Haze
10:13 PM 1.4 °F -20.5 °F -7.6 °F 66% 29.94 in 10.0 mi NNW 20.7 mph 27.6 mph N/A   Clear
10:33 PM 1.4 °F -21.9 °F -9.4 °F 61% 29.95 in 7.0 mi NNW 24.2 mph 31.1 mph N/A   Clear
10:53 PM 1.4 °F -17.6 °F -9.4 °F 61% 29.96 in 10.0 mi NNW 15.0 mph 21.9 mph N/A   Clear
11:13 PM -0.4 °F -21.2 °F -11.2 °F 60% 29.98 in 10.0 mi NW 17.3 mph - N/A   Clear
11:33 PM -2.2 °F -24.1 °F -13.0 °F 60% 29.99 in 10.0 mi NW 18.4 mph - N/A   Clear
11:53 PM -2.2 °F -23.5 °F -13.0 °F 60% 29.99 in 10.0 mi NNW 17.3 mph 23.0 mph N/A   Clear